Tiempo cada hora Cazones

Hoy, 23 Enero, Sábado

Tiempo Temperatura Precipitaciones Viento Presión Humedad
00:00 +23°C° 0 mm 1 mps 759 mmHg 95%
01:00 +21°C° 0 mm 0 mps 759 mmHg 95%
02:00 +21°C° 0 mm 0 mps 759 mmHg 95%
03:00 +21°C° 0 mm 0 mps 759 mmHg 95%
04:00 +22°C° 0 mm 0 mps 759 mmHg 94%
05:00 +22°C° 0 mm 0 mps 759 mmHg 94%
06:00 +22°C° 0 mm 0 mps 759 mmHg 93%
07:00 +22°C° 0 mm 0 mps 760 mmHg 92%
08:00 +23°C° 0 mm 0 mps 760 mmHg 90%
09:00 +23°C° 0 mm 0 mps 760 mmHg 89%
10:00 +26°C° 0 mm 1 mps 760 mmHg 85%
11:00 +27°C° 0 mm 2 mps 760 mmHg 82%
12:00 +28°C° 0 mm 2 mps 759 mmHg 79%
13:00 +28°C° 0 mm 2 mps 759 mmHg 77%
14:00 +28°C° 0 mm 3 mps 758 mmHg 75%
15:00 +29°C° 0 mm 3 mps 757 mmHg 73%
16:00 +27°C° 0 mm 3 mps 757 mmHg 78%
17:00 +26°C° 0 mm 3 mps 757 mmHg 82%
18:00 +25°C° 0 mm 3 mps 757 mmHg 86%
19:00 +24°C° 0 mm 3 mps 758 mmHg 88%
20:00 +24°C° 0 mm 3 mps 758 mmHg 90%
21:00 +22°C° 0 mm 3 mps 758 mmHg 92%
22:00 +23°C° 0 mm 2 mps 758 mmHg 93%
23:00 +23°C° 0 mm 2 mps 758 mmHg 95%

Mañana, 24 Enero, Domingo

Tiempo Temperatura Precipitaciones Viento Presión Humedad
00:00 +23°C° 0 mm 1 mps 758 mmHg 96%
01:00 +23°C° 0 mm 1 mps 758 mmHg 96%
02:00 +23°C° 0 mm 2 mps 758 mmHg 95%
03:00 +23°C° 0 mm 2 mps 757 mmHg 95%
04:00 +23°C° 0 mm 2 mps 757 mmHg 95%
05:00 +23°C° 0 mm 2 mps 757 mmHg 95%
06:00 +23°C° 0 mm 2 mps 757 mmHg 95%
07:00 +24°C° 0 mm 2 mps 758 mmHg 92%
08:00 +24°C° 0 mm 2 mps 758 mmHg 90%
09:00 +25°C° 0 mm 2 mps 758 mmHg 88%
10:00 +25°C° 0 mm 2 mps 758 mmHg 85%
11:00 +26°C° 0 mm 2 mps 758 mmHg 81%
12:00 +27°C° 0 mm 1 mps 757 mmHg 78%
13:00 +27°C° 0 mm 1 mps 757 mmHg 77%
14:00 +27°C° 0 mm 1 mps 756 mmHg 76%
15:00 +28°C° 0 mm 1 mps 755 mmHg 75%
16:00 +27°C° 0 mm 2 mps 755 mmHg 78%
17:00 +26°C° 0 mm 2 mps 755 mmHg 82%
18:00 +26°C° 0 mm 2 mps 755 mmHg 85%
19:00 +25°C° 0 mm 2 mps 755 mmHg 89%
20:00 +24°C° 0 mm 2 mps 756 mmHg 92%
21:00 +22°C° 0 mm 3 mps 756 mmHg 96%
22:00 +23°C° 0 mm 2 mps 756 mmHg 96%
23:00 +23°C° 0 mm 2 mps 756 mmHg 97%

Pasado mañana, 25 Enero, Lunes

Tiempo Temperatura Precipitaciones Viento Presión Humedad
00:00 +23°C° 0 mm 2 mps 756 mmHg 97%
01:00 +23°C° 0 mm 2 mps 755 mmHg 97%
02:00 +23°C° 0 mm 1 mps 755 mmHg 97%
03:00 +22°C° 0 mm 1 mps 755 mmHg 96%
04:00 +22°C° 0 mm 1 mps 755 mmHg 96%
05:00 +21°C° 0 mm 2 mps 755 mmHg 96%
06:00 +21°C° 0 mm 2 mps 755 mmHg 96%
07:00 +23°C° 0 mm 2 mps 755 mmHg 93%
08:00 +24°C° 0 mm 2 mps 756 mmHg 90%
09:00 +25°C° 0 mm 2 mps 756 mmHg 87%
10:00 +27°C° 0 mm 1 mps 756 mmHg 79%
11:00 +29°C° 0 mm 1 mps 755 mmHg 72%
12:00 +29°C° 0 mm 0 mps 755 mmHg 64%
13:00 +31°C° 0 mm 1 mps 754 mmHg 64%
14:00 +31°C° 0 mm 2 mps 754 mmHg 64%
15:00 +31°C° 0 mm 3 mps 753 mmHg 65%
16:00 +29°C° 0 mm 3 mps 753 mmHg 72%
17:00 +28°C° 0 mm 3 mps 753 mmHg 79%
18:00 +26°C° 0 mm 2 mps 753 mmHg 86%
19:00 +25°C° 0 mm 2 mps 754 mmHg 88%
20:00 +24°C° 0 mm 2 mps 754 mmHg 89%
21:00 +24°C° 0 mm 1 mps 755 mmHg 91%
22:00 +23°C° 0 mm 1 mps 755 mmHg 91%
23:00 +23°C° 0 mm 1 mps 755 mmHg 91%

26 Enero, Martes

Tiempo Temperatura Precipitaciones Viento Presión Humedad
00:00 +21°C° 0 mm 0 mps 755 mmHg 91%
01:00 +23°C° 0 mm 1 mps 755 mmHg 92%
02:00 +23°C° 0 mm 1 mps 755 mmHg 93%
03:00 +22°C° 0 mm 1 mps 755 mmHg 94%
04:00 +22°C° 0 mm 1 mps 755 mmHg 94%
05:00 +22°C° 0 mm 1 mps 755 mmHg 94%
06:00 +21°C° 0 mm 2 mps 755 mmHg 95%
07:00 +23°C° 0 mm 2 mps 756 mmHg 92%
08:00 +24°C° 0 mm 2 mps 757 mmHg 89%
09:00 +25°C° 0 mm 3 mps 757 mmHg 86%
10:00 +26°C° 0 mm 2 mps 757 mmHg 81%
11:00 +28°C° 0 mm 2 mps 756 mmHg 75%
12:00 +29°C° 0 mm 2 mps 756 mmHg 69%
13:00 +29°C° 0 mm 2 mps 755 mmHg 68%
14:00 +30°C° 0 mm 2 mps 755 mmHg 67%
15:00 +30°C° 0 mm 3 mps 754 mmHg 66%
16:00 +29°C° 0 mm 2 mps 754 mmHg 73%
17:00 +27°C° 0 mm 2 mps 754 mmHg 79%
18:00 +26°C° 0 mm 2 mps 754 mmHg 85%
19:00 +25°C° 0.6 mm 2 mps 755 mmHg 88%
20:00 +24°C° 0.6 mm 2 mps 755 mmHg 91%
21:00 +23°C° 0.6 mm 2 mps 756 mmHg 94%
22:00 +23°C° 0.4 mm 2 mps 756 mmHg 94%
23:00 +23°C° 0.4 mm 1 mps 756 mmHg 94%

27 Enero, Miércoles

Tiempo Temperatura Precipitaciones Viento Presión Humedad
00:00 +23°C° 0.4 mm 1 mps 756 mmHg 93%
01:00 +23°C° 0 mm 1 mps 756 mmHg 93%
02:00 +23°C° 0 mm 1 mps 756 mmHg 93%
03:00 +21°C° 0 mm 0 mps 756 mmHg 92%
04:00 +23°C° 0 mm 1 mps 756 mmHg 93%
05:00 +23°C° 0 mm 1 mps 756 mmHg 94%
06:00 +21°C° 0 mm 2 mps 757 mmHg 94%
07:00 +23°C° 0 mm 2 mps 758 mmHg 91%
08:00 +24°C° 0 mm 2 mps 758 mmHg 88%
09:00 +25°C° 0 mm 3 mps 759 mmHg 86%
10:00 +26°C° 0 mm 4 mps 760 mmHg 83%
11:00 +27°C° 0 mm 6 mps 760 mmHg 80%
12:00 +28°C° 0 mm 8 mps 761 mmHg 78%
13:00 +26°C° 0.4 mm 8 mps 761 mmHg 82%
14:00 +23°C° 0.4 mm 8 mps 761 mmHg 86%
15:00 +22°C° 0.4 mm 8 mps 761 mmHg 90%
16:00 +21°C° 0.4 mm 8 mps 762 mmHg 89%
17:00 +21°C° 0.4 mm 8 mps 762 mmHg 88%
18:00 +21°C° 0.4 mm 7 mps 763 mmHg 88%
19:00 +20°C° 0.1 mm 7 mps 764 mmHg 86%
20:00 +20°C° 0.1 mm 6 mps 765 mmHg 85%
21:00 +20°C° 0.1 mm 5 mps 766 mmHg 84%
22:00 +20°C° 0.1 mm 5 mps 766 mmHg 83%
23:00 +19°C° 0.1 mm 5 mps 766 mmHg 81%

28 Enero, Jueves

Tiempo Temperatura Precipitaciones Viento Presión Humedad
00:00 +19°C° 0.1 mm 4 mps 766 mmHg 80%
01:00 +19°C° 0 mm 4 mps 766 mmHg 79%
02:00 +19°C° 0 mm 4 mps 766 mmHg 78%
03:00 +19°C° 0 mm 4 mps 766 mmHg 77%
04:00 +19°C° 0 mm 3 mps 766 mmHg 76%
05:00 +19°C° 0 mm 3 mps 766 mmHg 75%
06:00 +19°C° 0 mm 3 mps 766 mmHg 73%
07:00 +19°C° 0 mm 3 mps 767 mmHg 73%
08:00 +19°C° 0 mm 2 mps 767 mmHg 73%
09:00 +19°C° 0 mm 2 mps 768 mmHg 73%
10:00 +20°C° 0 mm 2 mps 768 mmHg 68%
11:00 +21°C° 0 mm 3 mps 768 mmHg 64%
12:00 +22°C° 0 mm 3 mps 768 mmHg 59%
Mostrar más